Home   Weather   Greenwich Borough   Past weeks

Flag for United Kingdom Past Weather in Greenwich Borough, England, United Kingdom — Yesterday and Last 2 Weeks

Now
63 °F

Clear.


Feels Like: 63 °F
Forecast: 53 / 66 °F
Wind: 7 mph from Southeast

Location: Northolt

Current Time: Sep 25, 2016 at 1:28:53 AM

Latest Report: Sep 25, 2016 at 12:50 AM


Visibility: N/A

Pressure: 29.83 "Hg

Humidity: 68%

Dew Point: 52 °F

Location of Greenwich BoroughLocation

Past Weather in Greenwich Borough — Graph

°F

Greenwich Borough Temperature Yesterday

Maximum temperature yesterday: 72 °F (at 12:50 PM)
Minimum temperature yesterday: 50 °F (at 1:50 AM)
Average temperature yesterday: 63 °F

High & Low Weather Summary for the Past Weeks

 TemperatureHumidityPressure
High90 °F (Sep 13, 4:50 PM)100% (Sep 10, 2:50 PM)30.27 "Hg (Sep 10, 2:50 PM)
Low45 °F (Sep 11, 6:50 AM)36% (Sep 13, 4:50 PM)29.74 "Hg (Sep 13, 3:50 PM)
Average63 °F77%30.00 "Hg
* Reported Sep 9 11:50 PM — Sep 24 11:50 PM, Greenwich Borough, Weather by CustomWeather, © 2016

Note: Actual official high and low records may vary slightly from our data, if they occured in-between our weather recording intervals... More about our weather records

Advertising

Greenwich Borough Weather History for the Previous 24 Hours

Scroll right to see more
 ConditionsComfort  
Time TempWeatherWind HumidityBarometerVisibility
11:50 PM
Sat, Sep 24
64 °FClear.9 mph60%29.83 "HgN/A
10:50 PM66 °FClear.9 mph56%29.86 "Hg10 mi
9:50 PM66 °FClear.9 mph56%29.89 "Hg10 mi
8:50 PM66 °FClear.8 mph56%29.89 "Hg10 mi
7:50 PM66 °FClear.10 mph60%29.92 "Hg10 mi
6:50 PM68 °FPartly cloudy.10 mph56%29.92 "HgN/A
5:50 PM68 °FPartly sunny.10 mph56%29.95 "HgN/A
4:50 PM68 °FBroken clouds.15 mph56%29.95 "HgN/A
3:50 PM70 °FPartly sunny.14 mph57%29.98 "HgN/A
2:50 PM70 °FPartly sunny.16 mph53%29.98 "HgN/A
1:50 PM70 °FSunny.17 mph50%29.98 "Hg10 mi
12:50 PM72 °FSunny.18 mph47%30.01 "Hg10 mi
11:50 AM70 °FPartly sunny.15 mph53%30.04 "HgN/A
10:50 AM68 °FPartly sunny.15 mph60%30.07 "HgN/A
9:50 AM64 °FSunny.10 mph68%30.09 "Hg10 mi
8:50 AM61 °FSunny.8 mph83%30.09 "Hg10 mi
7:50 AM59 °FSunny.7 mph88%30.09 "Hg10 mi
6:50 AM57 °FSunny.6 mph88%30.09 "Hg10 mi
5:50 AM57 °FClear.9 mph88%30.09 "HgN/A
4:50 AM55 °FPassing clouds.8 mph88%30.09 "HgN/A
3:50 AM50 °FPassing clouds.1 mph94%30.12 "HgN/A
2:50 AM50 °FPassing clouds.1 mph88%30.15 "HgN/A
1:50 AM50 °FClear.3 mph88%30.15 "HgN/A
Weather by CustomWeather, © 2016

See weather overviewHow to use our weather pages